Location: Cisewo
(53.3833°N, 14.9000°E)
Time: 05:17:29
(UTC+00:00)

NOAA 18 - Pass Details

Date: 26 September 2021
Orbit: 841 x 860 km, 99.0° (Epoch: 17 October)

Event Time Altitude Azimuth Distance (km) Brightness Sun altitude
Exits shadow 21:13:32 31° 280° (W) 1,442 6.6 -34.4°
Drops below altitude 10° 21:17:46 10° 329° (NNW) 2,485 8.4 -34.7°
Sets 21:20:25 0° 339° (NNW) 3,428 9.4 -34.9°
